EHI
0 0 0 0 0 0 0 0 0 0 0 0 0 0 0 0 0 0 0 0 0 0 0 0 0 0 0 0 0 0 0 0 0 0 0 0 0 0 0 0 0 0 0 0
0 0 0 0 0 0 0 0 0 0 0 0 0 0 0 0 0 0 0 0 0 0 0 0 0 0 0 0 0 0 0 0 0 0 0 0 0 0 0 0 0 0 0 0
0 0 0 0 0 0 0 0 0 0 0 0 0 0 0 0 0 0 0 0 0 0 0 0 0 0 0 0 0 0 0 0 0 0 0 0 0 0 0 0 0 0 0 0
0 0 0 0 0 0 0 0 0 0 0 0 0 0 0 0 0 0 0 0 0 0 0 0 0 0 0 0 0 0 0 0 0 0 0 0 0 0 0 0 0 0 0 0
0 0 0 0 0 0 0 0 0 0 0 0 0 0 0 0 0 0 0 0 0 0 0 0 0 0 0 0 0 0 0 0 0 0 0 0 0 0 0 0 0 0 0 0
0 0 0 0 0 0 0 0 0 0 0 0 0 0 0 0 0 0 0 0 0 0 0 0 0 0 0 0 0 0 0 0 0 0 0 0 0 0 0 0 0 0 0 0
0 0 0 0 0 0 0 0 0 0 0 0 0 0 0 0 0 0 0 0 0 0 0 0 0 0 0 0 0 0 0 0 0 0 0 0 0 0 0 0 0 0 0 0
0 0 0 0 0 0 0 0 0 0 0 0 0 0 0 0 0 0 0 0 0 0 0 0 0 0 0 0 0 0 0 0 0 0 0 0 0 0 0 0 0 0 0 0
0 0 0 0 0 0 0 0 0 0 0 0 0 0 0 0 0 0 0 0 0 0 0 0 0 0 0 0 0 0 0 0 0 0 0 0 0 0 0 0 0 0 0 0
0 0 0 0 0 0 0 0 0 0 0 0 0 0 0 0 0 0 0 0 0 0 0 0 0 0 0 0 0 0 0 0 0 0 0 0 0 0 0 0 0 0 0 0
0 0 0 0 0 0 0 0 0 0 0 0 0 0 0 0 0 0 0 0 0 0 0 0 0 0 0 0 0 0 0 0 0 0 0 0 0 0 0 0 0 0 0 0
0 0 0 0 0 0 0 0 0 0 0 0 0 0 0 0 0 0 0 0 0 0 0 0 0 0 0 0 0 0 0 0 0 0 0 0 0 0 0 0 0 0 0 0
0 0 0 0 0 0 0 0 0 0 0 0 0 0 0 0 0 0 0 0 0 0 0 0 0 0 0 0 0 0 0 0 0 0 0 0 0 0 0 0 0 0 0 0
0 0 0 0 0 0 0 0 0 0 0 0 0 0 0 0 0 0 0 0 0 0 0 0 0 0 0 0 0 0 0 0 0 0 0 0 0 0 0 0 0 0 0 0
0 0 0 0 0 0 0 0 0 0 0 0 0 0 0 0 0 0 0 0 0 0 0 0 0 0 0 0 0 0 0 0 0 0 0 0 0 0 0 0 0 0 0 0
0 0 0 0 0 0 0 0 0 0 0 0 0 0 0 0 0 0 0 0 0 0 0 0 0 0 0 0 0 0 0 0 0 0 0 0 0 0 0 0 0 0 0 0
0 0 0 0 0 0 0 0 0 0 0 0 0 0 0 0 0 0 0 0 0 0 0 0 0 0 0 0 0 0 0 0 0 0 0 0 0 0 0 0 0 0 0 0
0 0 0 0 0 0 0 0 0 0 0 0 0 0 0 0 0 0 0 0 0 0 0 0 0 0 0 0 0 0 0 0 0 0 0 0 0 0 0 0 0 0 0 0
0 0 0 0 0 0 0 0 0 0 0 0 0 0 0 0 0 0 0 0 0 0 0 0 0 0 0 0 0 0 0 0 0 0 0 0 0 0 0 0 0 0 0 0
0 0 0 0 0 0 0 0 0 0 0 0 0 0 0 0 0 0 0 0 0 0 0 0 0 0 0 0 0 0 0 0 0 0 0 0 0 0 0 0 0 0 0 0
0 0 0 0 0 0 0 0 0 0 0 0 0 0 0 0 0 0 0 0 0 0 0 0 0 0 0 0 0 0 0 0 0 0 0 0 0 0 0 0 0 0 0 0
0 0 0 0 0 0 0 0 0 0 0 0 0 0 0 0 0 0 0 0 0 0 0 0 0 0 0 0 0 0 0 0 0 0 0 0 0 0 0 0 0 0 0 0
0 0 0 0 0 0 0 0 0 0 0 0 0 0 0 0 0 0 0 0 0 0 0 0 0 0 0 0 0 0 0 0 0 0 0 0 0 0 0 0 0 0 0 0
0 0 0 0 0 0 0 0 0 0 0 0 0 0 0 0 0 0 0 0 0 0 0 0 0 0 0 0 0 0 0 0 0 0 0 0 0 0 0 0 0 0 0 0
0 0 0 0 0 0 0 0 0 0 0 0 0 0 0 0 0 0 0 0 0 0 0 0 0 0 0 0 0 0 0 0 0 0 0 0 0 0 0 0 0 0 0 0
0 0 0 0 0 0 0 0 0 0 0 0 0 0 0 0 0 0 0 0 0 0 0 0 0 0 0 0 0 0 0 0 0 0 0 0 0 0 0 0 0 0 0 0
0 0 0 0 0 0 0 0 0 0 0 0 0 0 0 0 0 0 0 0 0 0 0 0 0 0 0 0 0 0 0 0 0 0 0 0 0 0 0 0 0 0 0 0
Wind_Speed
6 5 4 7 8 8 9 9 9 9 9 10 7 5 5 4 3 3 3 3 3 3 2 2 2 2 2 2 2 1 1 2 3 2 2 2 2 2 2 2 3 3 3 3
4 4 5 8 9 10 10 9 10 9 12 7 5 4 4 4 3 3 4 4 4 3 3 3 3 3 2 2 2 2 2 2 2 2 1 2 2 2 2 2 2 2 3 3
4 3 4 9 9 10 7 7 8 10 9 3 3 5 6 5 4 5 5 4 4 4 4 4 4 3 3 3 2 2 2 2 2 2 2 2 2 2 2 2 2 2 3 3
2 1 8 7 3 6 6 6 7 6 5 4 5 6 5 4 4 5 5 4 4 4 4 4 3 3 3 2 2 2 2 2 2 2 2 2 1 2 2 2 2 3 3 3
3 4 9 7 3 4 5 6 5 7 6 3 2 3 4 3 3 4 4 4 4 4 3 2 2 2 2 2 2 2 3 3 3 3 3 3 3 3 3 2 3 3 3 3
4 5 8 6 2 2 2 5 3 4 4 3 0 1 5 3 3 4 3 3 2 2 1 1 2 1 1 2 2 3 4 3 3 3 3 4 4 3 2 2 3 3 3 3
6 7 9 5 1 3 3 5 2 2 3 2 3 5 4 3 3 3 3 3 2 2 1 2 2 0 1 2 3 4 3 3 2 3 3 4 3 3 3 3 3 3 4 3
5 6 9 1 2 3 4 2 1 1 1 2 3 4 3 3 3 3 3 3 2 2 2 2 1 1 2 3 4 3 2 3 3 3 3 2 3 3 3 3 3 3 3 4
6 6 3 1 2 3 2 2 2 2 2 2 3 4 4 3 3 3 3 2 2 1 2 3 2 1 3 4 3 2 3 3 3 3 2 3 3 3 2 2 3 3 3 3
4 6 4 4 3 4 3 3 3 3 3 2 3 4 4 3 3 3 3 3 2 2 2 3 3 3 3 4 3 3 3 3 2 2 3 2 2 2 3 3 3 3 3 4
6 6 4 4 3 4 3 3 3 3 3 3 3 4 3 3 3 3 3 3 2 2 3 4 4 4 4 3 2 3 3 3 2 2 2 2 2 3 4 4 5 4 4 4
7 5 4 5 4 3 4 5 4 3 3 3 2 3 3 3 3 3 3 3 3 3 3 4 4 4 4 3 2 2 3 2 2 2 2 2 2 3 4 5 7 8 7 6
6 4 4 6 5 4 4 4 4 3 3 3 3 2 2 3 3 3 3 3 4 4 4 4 4 4 4 3 2 3 3 3 2 2 2 2 2 2 3 4 5 6 7 8
4 2 4 4 4 4 3 3 2 2 2 2 2 2 2 3 3 3 4 4 4 4 4 4 4 5 4 3 3 3 3 4 3 3 3 3 3 3 3 3 3 3 4 6
4 3 5 4 3 3 2 1 2 2 2 3 2 2 2 3 4 4 4 4 3 3 4 4 4 5 4 3 3 3 3 3 3 3 3 3 3 3 3 3 4 4 3 4
3 2 2 2 3 3 2 2 2 3 3 3 3 3 3 4 4 4 4 3 3 4 5 4 5 5 3 3 3 3 3 5 4 3 3 3 3 3 3 3 4 4 4 4
1 2 2 2 3 3 3 3 3 3 3 4 4 4 4 4 4 4 4 4 4 4 5 5 5 5 3 3 3 3 3 4 5 4 3 3 3 3 3 3 4 4 4 5
3 4 4 4 4 4 4 3 3 3 4 4 4 3 4 4 5 5 5 4 4 4 5 5 5 4 3 3 3 3 3 3 3 3 3 3 4 3 3 4 4 5 4 5
2 2 3 3 3 3 4 4 4 4 4 3 4 4 5 5 5 5 4 4 4 6 6 5 6 4 4 4 4 3 3 3 3 3 3 5 4 3 3 4 4 4 4 4
3 3 3 3 3 3 3 4 4 4 4 3 4 4 5 5 4 4 4 5 5 5 5 5 4 4 4 4 5 3 3 4 4 4 4 3 4 4 4 4 4 4 4 4
4 4 4 4 4 4 4 4 4 5 5 4 4 5 6 6 5 4 4 5 5 5 5 7 4 4 4 4 5 3 3 4 4 4 4 4 4 4 4 4 4 4 4 4
4 4 4 4 4 5 4 3 4 4 4 4 5 5 5 5 5 4 5 5 5 7 5 3 3 5 6 6 3 3 3 4 4 3 4 4 4 4 4 4 4 4 4 4
4 4 5 5 5 5 5 4 4 4 5 5 5 5 5 5 4 4 5 4 4 7 5 3 6 9 9 4 3 3 3 4 4 4 4 4 4 4 4 5 4 4 4 4
5 5 5 5 4 4 5 5 4 4 4 5 5 5 5 4 4 4 4 6 8 8 4 6 9 9 8 3 3 3 3 4 4 4 4 4 4 4 4 4 4 4 4 4
4 4 4 4 4 4 5 5 4 4 4 4 4 4 4 3 4 4 3 4 7 7 4 6 9 9 5 3 3 4 4 4 4 4 3 4 4 4 4 4 4 4 4 4
4 4 4 4 4 4 4 3 3 4 3 4 4 3 3 3 3 4 3 4 5 7 5 4 4 5 3 3 4 4 4 4 4 4 3 3 4 4 4 4 4 4 4 4
4 4 3 4 3 3 3 3 4 4 4 4 5 4 3 3 3 3 4 4 4 4 4 3 3 3 3 3 4 4 3 3 3 3 3 3 3 4 4 4 4 3 3 3
Wind_Direction
251 262 240 242 238 215 213 214 221 244 246 263 270 275 274 271 278 281 282 277 265 263 267 270 267 262 248 248 244 219 197 204 223 223 212 207 211 216 215 214 223 223 224 231
272 255 249 261 250 226 229 229 237 257 265 258 265 277 280 273 263 265 274 275 269 261 259 255 248 246 246 247 239 214 215 227 222 199 197 209 222 219 223 233 234 229 231 233
267 295 307 264 230 207 212 212 202 230 249 268 274 268 263 260 256 254 263 267 267 265 255 250 244 235 233 237 233 219 228 232 218 204 210 223 225 218 226 238 241 243 242 238
252 347 245 248 213 191 206 234 219 235 256 246 250 268 270 255 243 258 268 270 268 263 261 257 243 236 233 226 224 227 230 231 225 216 226 231 230 239 241 232 231 242 248 247
196 240 272 282 237 180 198 260 225 230 254 262 288 327 297 262 241 251 259 264 262 257 256 257 254 235 207 223 230 235 235 236 232 218 219 228 236 243 246 241 247 247 249 245
196 225 245 251 223 180 134 275 244 209 233 248 86 304 279 295 299 290 292 293 291 298 304 292 282 228 197 236 239 244 245 242 236 222 221 232 239 246 251 242 248 250 254 247
214 236 260 262 254 119 176 254 283 203 212 202 210 228 261 299 309 303 303 306 318 339 326 284 277 210 234 250 254 258 258 255 248 231 229 234 239 245 243 247 253 254 257 260
193 221 252 272 118 180 233 287 288 261 248 237 254 278 294 298 298 310 319 325 334 339 320 308 288 231 253 264 267 271 262 259 256 249 246 241 234 248 241 233 245 255 259 270
206 227 276 240 224 263 252 253 270 266 278 270 282 284 292 295 302 308 307 308 308 300 305 310 301 253 254 270 277 278 270 266 264 262 255 238 227 236 245 229 235 249 249 261
254 266 277 279 286 295 285 263 274 275 275 259 263 275 285 290 297 302 304 301 299 304 301 300 299 283 263 273 277 271 269 270 264 257 263 256 240 228 229 230 233 243 246 254
255 273 298 286 281 289 295 293 293 291 277 254 251 268 265 277 286 288 293 294 289 279 280 285 292 290 284 275 262 261 263 262 259 254 252 259 259 241 237 235 231 238 240 239
240 239 234 264 269 280 278 278 278 279 288 284 256 260 269 274 278 283 289 293 291 283 279 282 285 286 286 273 250 247 266 265 256 253 256 254 268 290 270 260 265 261 257 254
252 267 253 264 273 273 267 273 276 268 262 278 287 269 267 274 278 281 284 282 276 275 276 279 281 283 284 276 259 245 252 259 256 248 246 249 251 261 288 296 278 267 264 265
256 269 274 272 272 283 283 282 294 295 287 276 282 288 285 284 288 288 283 280 279 278 281 283 283 284 285 279 271 265 260 257 255 245 244 245 248 253 256 270 289 288 276 273
267 243 243 269 288 293 295 304 323 313 313 314 307 298 293 289 288 287 289 293 295 293 290 289 287 288 293 282 273 270 267 260 252 249 245 245 249 254 255 258 265 277 287 285
281 290 271 271 282 289 299 296 287 294 302 302 304 297 287 281 282 287 290 291 291 290 290 287 284 287 294 284 278 277 270 271 270 257 249 246 244 247 253 256 261 265 271 276
255 279 275 279 275 278 275 266 264 272 279 280 282 287 291 291 290 292 294 292 283 280 283 281 284 290 286 273 268 273 273 272 274 268 253 247 245 246 249 254 261 265 267 267
224 235 238 239 243 257 273 274 268 269 270 273 283 286 285 280 279 285 290 297 298 294 285 280 283 290 283 275 269 267 266 267 264 261 260 256 256 252 251 255 259 266 276 277
285 267 270 269 257 253 263 270 272 272 274 275 278 278 274 272 274 280 285 289 290 291 291 287 293 293 280 272 277 263 261 264 266 264 260 261 265 255 251 252 257 261 268 274
313 302 296 296 292 271 273 279 281 280 277 270 273 279 282 281 278 277 277 272 262 262 275 289 293 282 276 272 278 264 258 258 261 264 263 257 256 257 254 256 258 260 264 266
305 304 303 299 296 291 280 278 279 279 281 273 263 267 272 278 275 269 271 279 277 270 277 286 284 276 276 280 279 264 259 261 263 263 263 261 260 259 259 260 260 261 263 266
293 292 293 294 293 293 291 284 275 275 281 278 270 265 269 275 277 272 259 257 273 288 293 278 274 278 286 289 272 263 263 264 264 264 263 262 261 262 262 259 259 261 261 261
292 288 287 286 284 284 290 287 277 273 273 274 272 268 266 268 266 267 280 274 272 286 291 274 283 290 295 288 267 265 265 265 265 264 262 260 259 260 260 259 259 259 259 259
295 295 292 290 289 290 289 288 284 278 274 276 273 268 266 276 281 261 257 281 291 294 288 286 293 296 298 285 267 264 265 265 264 263 262 261 260 259 259 259 261 260 257 257
300 298 296 298 295 288 285 290 294 290 288 288 285 279 270 259 264 279 279 277 286 295 290 289 294 297 295 279 272 269 266 264 266 266 260 262 262 261 261 260 260 261 260 258
301 298 294 290 287 288 291 292 290 292 294 297 298 293 287 280 274 278 283 281 280 289 289 283 283 289 282 277 274 273 271 277 280 274 265 265 266 265 263 262 261 261 260 258
306 302 303 306 305 299 295 291 288 289 287 285 291 295 293 293 291 288 286 286 287 286 285 284 283 280 279 279 279 277 276 276 274 270 268 265 264 264 265 263 264 261 260 257